#timestamp,LO_Frequency,Hit,StdDev 
1543644015.1,286047000.0,N
1543644016.0,286047000.0,N
1543644035.8,286047000.5,N
1543644055.6,286047000.4,N
1543644075.5,286046998.5,N
1543644095.3,286047000.3,N
1543644115.1,286047000.5,N
1543644135.9,286046999.4,N
1543644155.7,286046996.7,Y
1543644175.6,286046997.1,P
1543644195.4,286046997.7,N
1543644215.2,286046997.2,N
1543644235.1,286046998.0,N
1543644236.0,286046998.0,N
1543644255.8,286046999.6,N
1543644275.6,286046998.5,N
1543644295.5,286046998.3,N
1543644315.3,286046998.5,N
1543644335.2,286046998.8,N
1543644355.9,286047000.8,N
1543644375.7,286046999.3,N
1543644395.6,286047000.5,N
1543644415.4,286047000.9,N
1543644435.2,286047001.0,N
1543644455.1,286047000.9,N
1543644456.0,286047000.9,N
1543644475.8,286047002.3,N
1543644495.7,286047000.3,N
1543644515.5,286047000.6,N
1543644535.3,286047000.1,N
1543644555.2,286047000.6,N
1543644575.9,286047000.7,N
1543644595.7,286047001.2,N
1543644615.6,286047001.1,N
1543644635.4,286046998.1,N
1543644655.2,286047000.8,N
1543644675.1,286046998.2,N
1543644676.0,286046998.2,N
1543644695.8,286047000.1,N
1543644715.7,286047001.2,N
1543644735.5,286046998.5,N
1543644755.3,286046998.8,N
1543644775.2,286046998.2,N
1543644795.0,286046998.3,N
1543644795.9,286046998.3,N
1543644815.8,286047001.2,N
1543644835.6,286046998.9,N
1543644855.4,286046999.1,N
1543644875.3,286046999.1,N
1543644895.1,286046999.5,N
1543644896.0,286046999.5,N
1543644915.8,286046998.4,N
1543644935.7,286046998.7,N
1543644955.5,286046999.0,N
1543644975.4,286046998.5,N
1543644995.2,286047000.9,N
1543645015.0,286047000.6,N
1543645015.9,286047000.6,N
1543645035.8,286047000.8,N
1543645055.6,286047001.0,N
1543645075.4,286046999.7,N
1543645095.3,286047002.6,N
1543645115.1,286047002.8,N
1543645135.9,286047000.7,N
1543645155.7,286046999.9,N
1543645175.5,286047002.6,N
1543645195.4,286047001.8,N
1543645215.2,286046999.8,N
1543645235.0,286047000.5,N
1543645235.9,286047000.5,N
1543645255.8,286046999.7,N
1543645275.6,286047002.3,N
1543645295.5,286047001.0,N
1543645315.3,286047000.7,N
1543645335.1,286046998.6,N
1543645385.9,286046998.9,E
1543645395.8,286047000.7,N
1543645415.7,286047000.2,P
1543645435.5,286047002.6,P
1543645455.3,286047002.9,N
1543645475.2,286047003.2,N
1543645495.0,286047004.2,Y
1543645495.9,286047004.2,P
1543645515.8,286047000.0,N
1543645535.6,286047000.7,N
1543645555.4,286047001.2,N
1543645575.3,286046999.7,N
1543645595.1,286046998.1,N
1543645615.8,286047000.0,N
1543645635.7,286047000.2,N
1543645655.5,286047000.4,N
1543645675.4,286047002.1,N
1543645695.2,286047002.4,N
1543645715.0,286047000.1,N
1543645715.9,286047000.1,N
1543645735.8,286047000.0,N
1543645755.6,286047001.0,N
1543645775.5,286046998.3,N
1543645825.3,286047000.0,E
1543645835.2,286047000.9,N
1543645855.1,286047000.0,P
1543645856.0,286047000.0,N
1543645875.8,286046999.9,N
1543645895.7,286047000.2,N
1543645915.5,286046999.8,N
1543645935.3,286046999.7,N
1543645955.2,286047000.3,N
1543645975.0,286047000.8,N
1543645975.9,286047000.8,N
1543645995.7,286047001.1,N
1543646015.6,286047000.8,N
1543646035.4,286046999.0,N
1543646055.3,286046999.4,N
1543646075.5,286046998.8,N
1543646095.4,286046999.6,N
1543646115.2,286046997.7,Y
1543646135.0,286046997.7,P
1543646155.0,286046996.8,N
1543646155.9,286046996.8,N
1543646175.8,286046999.5,N
1543646195.6,286046996.6,N
1543646215.5,286046998.9,N
1543646235.3,286046998.3,N
1543646255.2,286046998.7,N
1543646275.0,286046996.5,N
1543646275.9,286046996.5,N
1543646295.8,286046997.5,N
1543646315.6,286046996.6,N
1543646335.4,286046997.0,N
1543646355.3,286046997.0,N
1543646375.1,286046998.5,N
1543646395.8,286046999.0,N
1543646415.7,286047001.2,N
1543646435.5,286047000.3,N
1543646455.4,286047000.6,N
1543646475.2,286046998.5,N
1543646495.0,286047000.3,N
1543646495.9,286047000.3,N
1543646515.8,286046998.4,N
1543646535.6,286046998.1,N
1543646555.4,286047001.1,N
1543646575.4,286046999.4,N
1543646595.2,286046999.5,N
1543646615.1,286046998.6,N
1543646616.0,286046998.6,N
1543646635.8,286046999.4,N
1543646655.6,286047000.3,N
1543646675.5,286047000.0,N
1543646695.3,286047000.2,N
1543646715.1,286047000.5,N
1543646735.9,286047000.6,N
1543646755.7,286047000.6,N
1543646775.6,286046998.4,N
1543646795.4,286046998.9,N
1543646815.2,286046998.9,N
1543646835.1,286047001.0,N
1543646836.0,286047001.0,N
1543646855.8,286047000.5,N
1543646875.6,286047001.0,N
1543646895.5,286046998.6,N
1543646915.3,286046998.4,N
1543646935.2,286046998.5,N
1543646955.9,286046998.6,N
1543646975.7,286047001.1,N
1543646995.6,286046998.2,N
1543647015.4,286046999.9,N
1543647035.6,286047002.8,N
1543647055.5,286047002.2,N
1543647075.3,286047002.8,N
1543647095.2,286047002.4,N
1543647115.9,286047000.4,N
1543647135.7,286047002.4,N
1543647155.6,286047000.1,N
1543647175.4,286047001.1,N
1543647195.2,286047000.2,N
1543647215.1,286046999.9,N
1543647216.0,286046999.9,N
1543647235.8,286046999.7,N
1543647255.7,286047000.3,N
1543647275.5,286047000.3,N
1543647295.3,286047002.5,N
1543647315.2,286047000.3,N
1543647335.0,286047002.4,N
1543647335.9,286047002.4,N
1543647355.8,286047001.4,N
1543647375.6,286047001.7,N
1543647395.4,286047004.3,Y
1543647415.3,286047000.2,P
1543647435.1,286047000.8,P
1543647455.8,286047000.3,N
1543647475.7,286047000.9,Y
1543647495.5,286046998.5,P
1543647515.4,286046998.3,N
1543647535.2,286046998.2,N
1543647555.0,286046998.6,N
1543647555.9,286046998.6,N
1543647575.8,286046998.1,N
1543647595.6,286046999.3,N
